Location: Cedar Brake
(32.2526°N, 97.8459°W)
Time: 20:36:08
(UTC+00:00)

In-Cosmos 22 Rocket - Pass Details

Date: 22 April 2026
Orbit: 789 x 886 km, 81.2° (Epoch: 21 May)

Event Time Altitude Azimuth Distance (km) Brightness Sun altitude
Rises 02:02:04 0° 350° (N) 3,287 7.8 -12.2°
Reaches altitude 10° 02:04:26 10° 350° (N) 2,355 7.0 -12.6°
Maximum altitude 02:09:44 81° 265° (W) 806 4.2 -13.7°
Drops below altitude 10° 02:15:04 10° 177° (S) 2,370 6.3 -14.7°
Sets 02:17:27 0° 176° (S) 3,308 7.0 -15.1°
